RH
19 19 19 19 19 19 19 19 19 19 19 19 19 20 20 20 21 22 24 24 21 26 29 25 34 41 36 39 41 35 37 39 37 38 39 37 32 26 27 30 33 33 32 34 42 48 50 58 62 55 47 40 38 43 44 37 26 21 24 26 25 24 27 29 30 30 29 28 26 29 28 39 82 104 98 102 102 100 102 100 101 101 99 98 93 83
19 20 19 19 20 19 19 19 19 19 19 19 20 20 20 20 22 22 24 26 21 22 28 29 35 41 38 41 44 39 41 43 38 38 40 38 34 29 28 33 32 31 45 57 64 69 61 60 63 55 49 48 42 34 27 21 20 26 29 26 27 30 34 39 41 40 35 29 29 34 32 40 78 103 100 99 101 100 100 101 102 100 98 94 82 67
20 20 20 19 19 19 19 19 19 20 19 20 21 20 21 21 21 21 23 26 20 18 28 33 36 40 39 40 42 39 39 44 41 38 41 41 35 29 28 32 31 42 77 96 93 94 80 66 72 74 64 48 29 19 20 28 31 34 43 43 35 30 31 36 37 37 40 35 32 40 39 33 53 85 101 103 100 100 101 100 98 101 99 85 67 51
20 20 19 19 19 19 19 19 19 20 20 21 20 20 21 20 21 22 23 24 20 19 28 34 34 36 36 35 37 38 37 41 44 40 41 41 33 27 29 31 32 44 74 91 93 100 92 75 76 70 49 29 21 29 43 61 73 75 83 77 52 36 31 34 36 38 44 44 50 66 59 40 39 51 70 90 101 99 96 96 98 101 88 67 54 42
20 19 19 19 19 18 20 20 20 20 20 21 20 21 21 21 22 22 22 22 19 20 27 31 28 30 34 34 37 38 34 37 41 39 38 39 33 28 29 30 32 35 54 82 97 101 94 79 67 46 31 32 44 68 87 97 102 98 101 98 82 71 58 51 49 48 51 46 64 97 86 63 64 62 62 80 98 95 92 98 97 86 66 49 45 39
19 19 19 19 19 20 21 20 20 20 21 21 21 22 22 21 22 23 22 21 20 22 28 29 24 28 34 34 35 34 31 33 36 34 33 34 30 28 28 28 28 23 32 64 87 100 101 80 54 37 45 72 89 99 101 95 95 95 98 100 99 99 92 83 65 52 57 53 70 104 95 78 86 91 90 92 98 97 97 101 92 76 61 47 42 38
19 19 19 19 20 20 21 21 21 21 21 22 22 22 23 22 22 23 22 20 21 23 26 26 23 27 32 32 33 31 28 30 31 31 29 29 28 27 27 25 26 31 40 66 90 103 95 68 55 59 76 99 106 99 92 90 94 95 95 98 100 100 99 100 84 64 70 76 89 106 94 87 95 97 100 100 99 100 101 102 95 85 70 49 40 37
19 18 19 20 20 21 21 21 22 22 22 23 23 24 23 23 23 24 23 23 25 25 24 25 23 25 29 30 30 27 27 27 28 29 26 26 25 24 25 22 34 68 85 92 101 96 75 64 78 90 92 96 97 95 93 93 96 96 97 99 101 98 96 101 98 88 90 95 102 105 95 94 100 99 99 100 100 101 102 103 98 90 69 45 40 41
18 18 19 20 19 21 22 22 23 24 24 25 25 25 25 25 26 25 25 25 27 27 25 25 25 25 27 29 30 27 26 25 26 28 25 26 25 22 24 19 33 80 105 102 98 84 65 70 89 97 93 96 99 98 98 97 98 101 102 102 102 101 99 100 101 98 100 101 101 101 100 99 99 100 100 100 101 100 100 102 100 89 65 46 48 52
19 19 19 19 20 22 23 23 24 25 25 26 26 27 27 27 27 27 29 28 29 29 27 28 28 26 26 29 30 27 26 26 25 25 25 25 25 21 21 19 21 46 77 96 90 69 65 78 91 97 96 97 100 101 103 103 102 102 102 103 103 102 102 101 100 100 98 102 103 98 96 99 99 99 100 100 100 99 100 101 99 89 67 53 55 57
19 19 19 20 22 23 23 23 25 26 27 27 27 28 28 27 29 29 30 30 29 28 28 30 29 27 30 30 29 29 30 28 23 25 29 28 25 25 27 26 20 21 46 75 70 60 79 97 97 101 102 98 97 98 101 102 101 102 102 101 100 98 100 100 100 101 99 102 105 97 93 98 100 99 99 100 100 99 101 98 89 78 65 57 55 54
20 20 21 21 21 22 23 24 26 26 26 27 28 28 27 27 28 29 31 32 31 29 30 32 31 31 35 35 35 34 32 32 31 26 28 30 27 28 31 24 26 49 67 67 63 75 95 100 97 102 105 100 94 93 97 100 100 102 101 101 101 99 100 101 99 99 100 102 103 98 97 101 98 97 98 99 99 99 100 94 78 64 59 56 54 52
20 21 21 20 20 21 23 25 26 26 26 28 28 27 27 27 27 28 31 32 32 32 33 33 31 33 38 40 38 35 37 51 59 42 32 44 43 38 42 35 40 83 99 72 69 96 104 99 101 102 102 103 98 92 96 99 97 100 102 102 102 101 100 100 100 99 99 103 104 99 101 104 97 94 98 98 97 99 100 95 77 60 57 57 55 55
21 22 21 20 21 22 24 25 26 26 27 28 27 27 28 27 27 28 30 33 34 36 37 35 32 35 43 45 38 33 36 48 60 57 60 75 70 50 46 45 52 76 73 49 64 98 104 100 104 100 100 106 97 88 91 96 98 100 101 102 103 103 102 100 99 100 100 100 102 101 102 103 98 95 100 99 97 99 100 98 79 55 49 52 53 55
24 24 23 23 23 24 26 26 26 28 28 29 29 28 29 27 27 28 31 34 34 34 34 31 31 37 43 41 35 36 40 40 43 51 63 77 81 67 46 47 76 85 48 20 49 94 105 101 104 102 101 102 94 90 94 97 99 100 100 103 102 96 98 103 100 98 101 100 99 101 101 101 100 99 101 100 100 100 100 100 84 60 53 49 44 48
28 28 27 26 25 24 26 25 27 28 28 31 31 29 32 34 30 28 31 34 32 34 36 33 36 45 45 40 39 40 41 44 44 44 54 72 89 91 67 54 78 87 51 24 45 90 108 101 100 102 99 101 100 97 99 101 102 102 100 101 102 94 88 95 101 100 99 99 99 99 100 100 100 101 101 100 101 100 100 101 92 81 80 67 44 39
31 33 32 29 27 27 27 26 29 32 33 34 32 32 37 42 41 39 40 38 35 38 41 36 38 46 47 43 42 42 43 52 57 54 66 87 94 97 93 78 69 59 46 39 42 69 99 102 99 101 98 99 102 100 101 104 102 101 99 97 101 101 88 82 94 103 100 98 100 100 100 101 100 100 101 100 102 101 100 101 98 92 94 91 71 50
37 40 45 40 33 32 29 27 30 33 34 35 36 37 42 49 51 51 51 46 40 46 48 43 47 56 56 47 44 51 53 58 66 67 80 102 100 92 92 84 70 55 48 48 38 46 84 106 101 97 96 97 101 104 104 101 97 99 101 97 97 104 101 89 86 96 103 100 100 100 100 101 100 100 100 99 100 102 100 100 101 98 96 99 94 72
45 54 57 49 45 44 35 29 33 37 37 39 45 46 44 48 47 49 64 66 60 66 64 54 58 68 68 56 49 51 49 53 65 66 77 97 92 78 72 70 74 76 73 72 59 47 69 99 103 95 95 98 101 103 104 100 96 98 102 100 98 100 105 98 78 74 87 92 95 99 97 98 101 100 101 99 99 101 102 99 99 101 99 95 90 74
57 70 65 56 64 64 47 37 38 42 44 44 52 56 52 59 64 67 79 78 69 79 80 65 55 56 65 64 53 49 49 52 54 47 57 78 75 67 75 86 93 96 96 95 87 74 73 86 97 99 98 101 103 102 105 101 92 96 101 101 100 99 104 103 76 55 59 68 80 85 79 85 99 101 100 99 99 100 102 102 99 99 99 95 84 65
64 79 71 71 85 76 62 62 52 51 58 51 53 63 63 76 93 92 89 85 84 95 101 90 67 50 56 63 58 56 52 45 46 53 70 88 89 87 93 99 100 99 101 99 94 96 95 92 96 101 100 101 100 98 101 101 93 96 103 101 100 98 102 105 83 58 55 55 60 67 66 71 88 100 102 100 99 101 101 101 101 98 98 99 89 64
67 83 74 79 96 83 75 83 68 64 73 56 48 62 67 78 94 95 94 98 99 99 99 101 89 63 51 53 52 53 51 52 69 87 96 97 98 99 97 97 97 97 98 96 94 99 102 100 101 105 104 102 102 99 98 99 97 99 104 103 101 97 95 95 82 69 73 67 54 56 62 62 68 86 103 104 98 100 101 101 103 101 98 98 89 69
68 89 82 82 102 98 90 90 76 69 71 57 52 61 64 69 74 78 92 101 97 92 89 96 98 80 59 52 46 42 49 73 100 108 104 103 104 103 101 102 101 99 99 97 97 99 98 98 102 105 100 93 96 101 100 100 101 101 102 101 101 99 92 82 68 62 74 75 59 53 57 57 56 65 88 103 102 99 100 100 102 104 102 99 92 78
67 90 93 94 104 104 100 98 87 77 74 72 69 66 66 72 71 72 87 96 93 88 83 86 93 86 69 55 45 40 43 62 87 100 95 91 93 93 93 99 99 97 100 98 97 102 101 98 102 102 89 75 79 89 92 99 103 99 94 91 95 102 101 90 75 66 69 72 65 58 54 53 53 54 66 89 101 101 99 101 103 106 106 102 96 85
81 98 100 102 102 99 101 103 97 90 86 81 72 67 73 81 80 78 81 86 86 83 79 79 81 79 67 53 43 42 42 43 53 69 69 59 63 72 79 87 89 85 84 85 87 94 94 91 95 98 83 66 68 72 71 74 80 78 73 70 72 81 91 98 97 91 89 89 88 83 72 60 56 56 59 74 94 103 101 100 102 103 104 101 94 86
94 102 97 101 103 99 100 102 101 100 98 90 83 85 90 89 86 82 75 75 78 82 86 83 75 68 64 62 55 46 45 45 41 46 55 59 66 77 81 80 75 70 68 66 66 68 68 68 75 83 76 62 59 61 58 55 55 57 58 56 54 58 65 76 90 102 104 99 95 93 89 78 67 62 61 64 79 97 103 102 101 102 102 99 93 88
80 79 80 92 100 101 101 100 101 101 100 100 99 99 99 95 91 83 75 75 80 89 97 93 86 79 67 63 63 51 44 53 56 52 58 69 72 70 69 66 61 58 58 56 54 50 47 46 48 52 52 46 39 39 42 43 43 47 49 46 46 51 55 59 74 96 107 103 94 84 78 76 72 71 72 67 68 84 100 104 102 101 101 99 95 93
78 68 66 77 89 98 103 101 100 101 99 101 103 101 98 96 91 86 88 93 96 98 96 87 86 86 71 59 60 57 48 53 67 70 66 72 76 64 58 61 61 55 51 48 46 43 38 34 32 33 34 33 31 31 33 36 41 48 51 47 47 56 61 61 67 82 92 99 101 92 78 68 63 64 71 74 74 82 95 102 103 104 104 103 101 99
88 77 68 71 75 85 100 103 99 100 101 100 102 102 100 101 101 100 101 103 105 103 96 90 90 90 84 78 76 76 65 53 56 60 55 56 60 54 49 52 50 45 47 49 47 43 39 35 34 35 37 38 38 37 38 39 44 53 58 55 59 69 67 60 63 73 79 85 93 98 96 87 79 79 82 85 88 89 88 90 94 98 101 102 100 95
94 88 80 74 64 67 89 103 101 100 101 100 100 102 102 100 101 104 102 99 104 108 103 100 99 98 100 99 95 94 87 74 63 57 56 56 52 46 44 46 47 50 55 56 55 52 50 49 46 45 46 48 47 45 45 45 48 55 58 56 65 80 80 69 69 78 85 87 87 93 101 101 99 101 99 96 95 91 84 80 78 78 84 90 88 83
99 99 92 83 74 66 72 91 101 102 103 102 99 102 103 98 95 100 102 97 100 106 105 101 99 102 106 104 101 100 99 96 86 73 68 68 64 62 57 49 51 58 59 57 58 58 59 59 58 57 57 58 60 61 60 60 59 59 60 59 63 77 86 85 86 90 94 94 93 96 102 103 102 103 103 101 99 97 94 88 79 73 78 87 88 88
99 102 100 99 97 80 66 75 90 96 101 105 104 103 104 100 94 96 100 100 99 100 102 102 101 101 103 102 103 104 101 102 101 95 88 80 74 77 77 70 67 68 67 64 63 60 59 58 59 62 65 67 70 73 74 74 75 74 73 74 74 77 83 85 87 90 92 90 90 93 95 95 96 97 99 100 99 99 98 94 87 81 81 85 89 94
104 105 106 109 109 95 78 74 78 81 85 92 99 103 105 103 98 94 96 99 101 102 101 101 101 100 100 102 104 103 100 99 101 102 101 95 84 76 74 78 82 82 79 78 77 75 74 74 75 77 79 81 82 83 83 82 83 85 85 86 86 86 86 86 85 86 87 85 84 86 87 87 87 89 91 91 90 93 94 95 95 94 90 87 88 90
106 104 105 108 109 105 96 86 80 77 75 77 87 96 100 103 104 101 97 95 98 104 105 102 100 101 100 101 103 103 101 101 101 101 101 102 99 90 80 78 83 85 85 85 86 89 93 96 97 96 94 94 93 91 91 89 86 86 87 86 86 85 83 83 83 83 82 82 83 84 86 88 89 90 92 90 87 88 89 90 94 97 95 93 94 96
104 101 100 101 103 104 103 97 88 83 82 83 88 90 86 90 100 104 103 101 97 97 100 101 101 103 104 105 105 103 101 101 102 103 102 100 100 98 92 85 82 81 83 82 84 91 100 105 107 106 102 101 101 100 99 96 91 87 85 84 83 82 80 79 80 81 81 82 83 83 85 88 90 91 92 90 88 88 87 88 90 91 89 88 92 100
103 101 100 100 102 103 104 103 98 93 94 93 93 91 80 77 87 93 93 95 94 91 90 88 87 93 99 103 106 106 104 103 102 103 105 106 104 102 99 96 93 91 91 90 93 98 103 108 109 106 101 100 99 97 93 89 86 85 85 84 82 79 76 74 75 78 78 77 78 79 79 81 83 84 83 82 81 81 82 84 87 88 88 88 91 96
101 101 101 101 103 104 103 102 100 98 99 99 98 98 92 87 89 87 80 77 79 80 78 68 64 70 80 88 98 104 103 101 101 101 103 106 107 106 105 104 104 104 102 100 102 104 103 106 108 104 101 101 99 93 84 75 70 68 71 75 78 78 76 73 71 71 70 70 72 73 73 74 75 74 72 73 73 72 72 73 76 79 82 85 89 92
100 101 102 101 102 102 101 101 101 101 103 102 98 96 97 100 100 93 82 75 71 68 65 59 54 54 59 67 77 84 88 89 91 94 98 103 107 110 111 110 109 110 108 106 106 105 102 102 105 105 103 103 102 99 94 85 76 68 65 64 67 69 69 67 64 60 59 60 60 60 61 61 61 60 61 64 65 64 63 64 66 68 70 72 76 79
102 101 100 100 101 101 102 101 100 103 105 103 99 97 95 96 97 92 84 78 72 63 57 57 57 54 52 55 57 60 64 68 72 79 86 92 97 100 102 103 104 106 108 108 107 106 104 104 103 102 102 102 102 101 101 100 97 92 86 80 76 75 71 65 60 58 56 53 50 48 47 46 45 45 46 48 50 51 52 52 52 53 55 57 59 61
104 104 102 101 100 101 103 102 99 102 104 102 100 100 93 83 79 80 80 77 72 65 59 59 62 61 57 56 56 55 56 58 61 67 73 75 77 79 79 80 80 81 83 86 88 90 94 100 104 105 103 103 103 101 100 102 102 100 96 91 88 87 84 76 68 64 59 53 47 43 40 37 35 33 33 34 36 39 40 41 42 44 46 47 49 51
101 100 101 101 101 101 100 100 100 102 103 101 99 100 98 90 80 76 78 79 77 75 75 74 75 74 70 68 66 64 62 63 66 69 69 69 68 69 68 67 65 63 62 64 66 68 71 78 89 97 100 101 102 103 103 103 102 99 97 93 91 92 93 89 84 79 72 67 62 58 54 50 46 40 35 33 32 33 35 37 39 41 43 45 46 47
90 91 94 96 100 104 102 99 100 101 100 100 100 99 100 100 94 85 82 82 84 87 91 92 92 93 94 92 89 84 79 77 78 77 75 74 73 72 72 72 72 71 69 65 64 64 65 66 71 78 83 88 93 96 98 100 100 98 95 93 91 90 89 91 93 93 90 87 85 81 76 70 65 58 50 44 43 43 43 45 47 49 51 52 53 53
80 84 89 90 95 104 108 105 104 102 99 99 101 100 99 101 100 95 89 86 87 92 99 103 103 104 107 106 104 103 99 94 90 86 80 75 74 74 75 76 78 81 83 82 78 75 73 72 72 72 74 76 78 81 84 87 89 89 87 85 84 83 80 81 84 87 89 89 90 89 86 82 79 76 71 67 65 62 59 59 59 59 60 61 62 62
69 74 79 81 85 93 102 107 106 104 103 103 103 102 100 99 98 97 94 90 87 90 96 102 103 104 109 111 108 107 106 102 100 97 91 87 85 82 79 78 78 78 80 83 85 84 84 84 84 84 83 83 83 83 85 86 87 88 88 86 85 84 84 87 91 95 97 97 97 97 96 94 94 93 91 89 87 84 82 80 78 77 76 75 74 74
58 62 65 70 76 81 87 93 97 99 103 107 108 106 103 100 98 96 94 91 88 86 87 91 94 96 98 99 97 95 94 93 94 94 95 97 99 99 97 95 93 89 85 82 81 80 80 80 80 81 82 83 85 86 87 90 93 94 95 97 98 96 95 96 99 102 103 104 105 105 104 103 103 102 102 102 100 99 99 97 95 93 91 89 86 86
48 51 53 57 63 69 75 81 86 89 93 97 103 105 102 99 98 96 94 91 88 86 84 85 86 87 87 86 85 85 85 85 87 88 90 93 98 101 104 107 108 107 104 101 99 96 92 90 88 86 84 81 80 79 78 78 79 81 81 83 84 84 83 80 79 79 81 82 84 85 86 87 87 87 86 85 83 82 81 79 79 78 77 76 75 75
46 46 46 48 51 54 59 65 70 74 76 80 86 93 95 95 95 95 93 92 90 89 88 88 87 87 88 88 88 88 87 86 87 90 92 94 97 100 103 106 110 111 111 112 112 110 109 108 105 104 104 101 97 96 95 92 89 87 83 78 75 72 70 70 69 70 71 71 71 70 70 69 68 66 65 63 61 59 57 57 57 58 58 59 59 59
42 41 43 45 45 46 48 51 53 56 59 62 68 75 82 86 88 89 88 88 87 87 88 88 88 87 88 89 90 91 90 88 86 87 89 91 94 98 102 104 105 106 108 110 111 111 112 113 109 109 113 112 107 108 112 112 109 106 101 96 92 86 83 82 81 80 80 80 80 79 78 76 74 72 69 65 60 57 55 53 52 50 49 49 47 46
35 36 37 38 38 40 42 44 46 49 51 53 56 60 65 68 70 72 74 74 75 78 81 84 85 86 87 87 88 88 88 87 85 82 81 83 87 91 96 100 102 102 102 104 106 108 110 112 111 110 112 112 109 110 111 109 105 101 97 93 91 88 87 87 85 83 81 78 76 74 72 71 69 65 63 60 57 54 53 51 50 47 45 43 42 40
33 33 33 32 31 32 33 35 38 40 43 47 51 54 56 58 60 61 63 65 66 69 72 74 77 79 82 83 84 85 85 85 84 81 78 77 79 83 88 93 96 99 100 101 103 105 105 107 108 106 103 101 99 97 94 90 85 82 78 75 73 71 71 71 71 70 68 66 65 63 61 59 57 54 52 51 50 48 46 45 44 43 41 40 39 38
37 35 34 32 30 29 29 29 30 32 34 37 40 43 46 48 51 54 55 58 60 61 61 62 63 64 67 68 69 71 73 73 72 70 67 65 64 66 70 74 77 79 81 84 86 87 87 86 86 84 81 78 75 72 69 66 63 61 60 58 57 56 55 56 56 56 56 55 54 53 51 50 49 48 47 46 45 43 42 41 40 40 39 37 36 34
Wind_Speed
51 52 52 53 55 56 58 58 59 62 63 62 62 62 63 62 62 62 63 65 61 56 58 56 55 60 58 57 60 57 56 59 58 57 58 59 58 53 49 47 48 49 49 51 53 52 51 51 51 52 53 53 52 53 54 56 57 55 52 50 50 50 49 47 46 46 46 46 46 46 47 47 46 46 44 44 45 47 49 51 53 55 56 57 56 55
48 48 50 52 53 54 55 55 57 59 58 58 59 60 61 60 61 62 61 66 63 53 56 56 55 61 58 57 60 56 54 57 57 55 55 57 55 51 47 45 46 47 45 46 47 47 47 48 49 49 49 49 49 50 53 55 54 51 48 45 44 44 44 42 42 43 43 42 43 44 46 47 46 47 47 47 49 51 53 54 55 55 55 55 54 52
45 47 49 50 51 51 52 53 54 55 55 56 57 58 59 59 61 61 60 66 62 50 54 57 57 61 60 58 59 55 53 55 56 54 52 55 54 48 44 42 44 44 40 40 43 44 45 45 44 42 43 47 49 49 49 48 46 44 42 41 40 39 40 40 41 41 40 39 40 41 44 47 48 51 52 52 53 53 54 56 56 56 56 55 52 49
45 46 47 48 49 49 49 50 52 53 53 55 56 57 58 58 59 60 61 65 60 51 54 60 60 61 60 57 56 56 54 52 55 53 51 54 52 45 40 40 43 43 39 40 44 45 44 40 39 40 45 48 44 40 35 33 34 33 33 37 39 38 37 37 38 38 37 36 34 35 39 43 46 51 54 54 54 55 56 57 57 58 57 54 49 46
43 45 46 46 47 45 46 49 51 51 52 53 54 54 55 57 57 59 61 62 58 52 55 62 60 57 57 56 55 57 55 51 54 54 51 52 49 42 38 40 41 40 40 41 39 38 37 37 38 42 43 37 30 23 16 16 21 23 28 34 34 33 34 33 33 32 33 32 28 29 35 38 41 45 49 51 52 53 55 55 56 56 53 49 46 45
42 43 44 44 44 44 47 49 50 50 51 51 52 52 54 56 55 57 60 59 55 52 56 62 59 54 56 57 56 58 55 51 53 53 50 50 47 41 38 39 39 37 39 36 29 28 33 37 39 38 31 22 14 7 4 15 22 25 30 36 36 33 32 30 30 30 29 28 28 31 33 35 38 41 42 45 46 49 52 53 53 52 50 48 46 45
42 41 41 42 43 45 47 48 48 48 49 49 50 51 53 53 53 56 57 55 53 54 58 60 57 55 56 57 57 58 55 52 53 52 50 47 45 42 38 38 37 35 34 31 25 27 35 37 31 23 19 13 5 7 16 23 29 33 34 38 42 38 33 30 28 27 26 26 27 30 31 33 36 39 40 40 43 48 51 51 51 50 50 48 46 44
41 39 40 42 44 45 45 46 47 47 46 47 48 49 50 50 51 52 53 52 52 56 58 57 56 55 56 56 57 57 55 52 52 51 49 47 45 42 38 38 37 31 29 29 27 31 36 31 19 13 17 21 20 22 27 31 36 40 40 42 44 40 35 31 28 27 27 27 28 31 34 35 37 39 39 42 46 49 49 47 47 47 46 44 42 41
39 38 41 43 43 43 44 45 45 45 45 46 46 46 47 47 48 49 50 50 51 54 54 53 54 55 53 54 55 55 54 51 50 50 48 46 45 42 39 38 37 32 29 27 28 32 32 27 22 21 20 25 30 32 34 37 40 43 45 46 43 38 36 33 31 30 28 29 31 33 36 37 37 39 41 45 48 47 44 42 41 41 40 39 38 37
37 38 41 41 41 43 44 44 44 43 44 45 44 44 45 45 46 47 47 49 51 52 50 50 53 53 51 52 53 53 51 50 49 48 46 45 43 42 40 38 37 36 35 32 30 29 27 28 33 31 24 24 32 34 35 38 42 45 48 47 43 39 37 35 34 30 28 32 33 31 32 34 37 41 44 46 46 43 40 38 37 36 36 36 35 35
37 38 40 41 42 44 44 43 43 44 44 44 43 44 45 45 45 45 46 48 50 49 47 48 50 49 49 51 50 49 49 49 47 44 42 42 41 38 37 37 33 35 39 35 30 26 25 31 38 38 34 30 31 34 34 38 43 46 48 49 48 44 40 38 37 32 30 34 35 31 29 31 32 35 37 41 42 40 36 33 31 32 33 33 33 32
36 38 41 43 44 44 42 42 44 45 44 43 43 45 45 45 45 45 45 47 48 47 46 47 47 45 46 48 47 45 44 44 42 41 41 39 36 36 35 33 29 32 35 30 26 25 28 34 37 40 40 35 33 34 33 36 42 46 48 48 49 49 45 43 42 38 35 37 37 33 29 28 27 26 28 31 32 33 30 27 26 27 29 30 29 29
36 39 42 44 43 42 42 43 45 44 43 43 44 44 45 45 45 44 45 46 46 45 45 46 46 44 45 46 43 41 39 36 34 35 36 33 31 33 32 27 26 31 31 26 26 30 34 36 35 37 40 38 36 34 31 35 40 44 47 48 50 52 49 46 45 43 41 41 40 37 33 30 27 27 28 27 27 28 27 26 26 26 26 26 26 26
35 39 40 41 41 40 42 43 43 43 42 43 44 44 45 45 44 43 45 45 45 45 46 46 45 43 43 43 42 41 38 36 32 30 30 27 27 29 29 24 24 33 34 30 32 37 37 37 38 38 39 39 37 32 29 34 40 43 46 48 52 55 54 52 49 48 46 45 44 43 41 37 34 35 33 31 30 31 30 30 29 27 26 24 24 24
35 37 38 40 40 41 42 42 42 42 42 43 44 43 44 44 44 44 45 46 46 46 46 46 43 43 43 42 41 40 37 36 34 32 31 28 26 28 28 24 24 32 36 35 38 41 37 37 40 41 40 40 40 34 31 35 41 43 44 46 49 53 57 57 54 52 52 51 50 48 46 45 43 42 39 35 33 33 33 32 31 30 29 27 25 24
34 35 37 39 40 41 42 41 41 41 42 43 44 43 43 44 44 44 45 46 45 44 44 44 42 42 43 42 40 38 35 33 33 34 33 29 27 26 26 26 30 34 35 35 41 42 38 38 41 42 42 42 41 39 37 39 44 46 46 47 49 51 54 55 54 54 54 54 54 52 51 50 48 48 46 43 40 37 35 34 34 36 36 33 29 28
34 35 36 38 39 40 41 41 41 42 43 44 44 43 43 44 44 44 45 45 44 44 44 44 42 42 43 41 39 38 35 34 33 33 32 29 28 27 26 29 34 35 33 33 39 42 40 39 41 41 41 41 42 42 41 39 40 44 46 48 51 52 53 53 52 54 55 56 57 56 55 54 52 52 52 51 50 46 43 41 41 40 39 37 35 34
33 33 34 36 37 39 41 41 41 42 43 43 43 44 44 44 45 45 45 45 44 44 44 43 41 42 42 40 37 35 34 33 31 30 30 30 30 30 30 32 34 33 33 34 37 42 44 41 38 37 36 37 39 39 40 38 35 40 46 48 50 52 53 53 53 55 58 59 59 58 56 54 53 53 52 52 53 52 50 48 46 43 41 40 40 39
33 32 33 34 34 37 40 40 40 42 43 43 44 45 44 45 46 45 44 45 44 44 44 44 43 43 42 39 37 35 33 33 33 32 32 33 34 34 33 34 32 31 32 33 36 41 45 41 35 34 37 40 38 36 38 36 31 35 45 51 51 50 51 52 53 55 58 59 59 59 57 55 54 53 52 51 51 53 52 48 44 43 42 42 43 42
32 33 34 32 32 36 38 39 40 42 42 43 44 45 45 44 43 44 45 46 45 45 45 46 46 44 43 42 40 37 35 35 36 35 33 33 34 33 32 32 31 31 32 34 36 39 43 42 38 38 43 44 39 37 38 34 29 33 42 50 53 52 51 51 52 54 57 58 59 60 59 58 55 53 51 50 50 52 53 48 44 42 42 44 45 46
33 34 34 32 34 36 36 36 39 40 42 44 44 45 45 44 44 44 45 44 45 46 47 48 48 45 44 44 42 39 38 35 33 31 29 29 30 30 30 32 33 34 36 36 37 38 41 44 46 48 49 43 35 35 38 37 35 38 44 49 54 54 52 51 51 53 55 58 59 60 60 59 58 55 53 51 49 51 53 51 48 46 46 46 48 50
34 34 34 33 34 36 36 37 40 40 43 45 45 45 46 46 47 47 45 44 46 48 48 49 48 46 47 47 43 40 37 30 27 27 27 28 30 30 31 32 32 35 38 37 36 38 42 48 52 53 51 44 39 40 43 43 44 45 47 51 54 55 55 54 53 53 54 57 59 60 60 60 59 57 56 54 52 52 54 55 54 54 53 52 53 54
35 35 34 32 33 35 36 38 41 43 44 44 44 46 47 48 50 49 48 49 49 50 49 49 49 48 48 47 44 41 37 30 29 32 33 34 36 36 35 34 34 36 39 41 41 41 44 49 52 54 53 49 48 50 50 49 49 49 49 49 50 52 54 55 55 54 54 56 59 60 61 62 61 60 58 57 56 55 56 58 59 60 60 59 58 58
36 35 33 31 32 34 35 37 40 42 43 43 44 46 47 47 49 49 50 52 52 52 52 51 51 51 49 47 44 42 41 40 41 42 43 45 46 46 46 46 47 47 47 50 52 49 47 49 50 52 54 54 54 55 55 54 54 54 55 54 52 51 53 56 57 56 57 58 60 60 62 63 63 62 60 60 60 59 59 60 62 64 65 65 65 63
35 35 35 34 34 34 36 39 40 40 41 42 44 45 45 47 49 49 51 52 52 53 53 53 53 53 51 49 46 44 43 45 48 48 47 50 51 51 52 53 54 55 55 56 58 56 53 52 51 51 52 53 52 54 56 57 57 58 59 60 58 56 56 57 57 57 59 61 61 60 61 62 63 63 62 62 62 63 63 63 64 66 68 69 69 68
40 40 40 40 38 38 39 40 40 40 40 40 40 41 44 47 49 50 51 51 51 51 53 53 53 52 50 48 47 47 44 43 48 50 49 51 53 53 54 54 54 55 56 57 57 58 58 57 56 54 54 52 51 52 55 57 59 60 60 60 60 60 59 60 59 59 60 62 64 64 62 62 62 63 64 64 64 65 66 66 67 68 70 70 71 71
44 43 43 44 43 42 41 40 42 42 41 40 41 42 45 47 50 51 51 50 50 51 52 53 52 52 52 50 49 48 44 42 45 48 49 53 56 56 56 57 57 58 58 57 57 58 59 59 59 59 58 58 57 57 58 59 60 61 61 61 60 59 58 59 61 60 60 62 65 66 66 65 64 64 65 66 67 67 68 69 70 70 70 71 71 72
44 43 43 45 47 45 43 42 43 43 42 43 45 46 46 47 48 48 47 48 50 52 53 52 51 52 53 51 49 50 49 47 47 48 51 56 59 59 58 58 58 59 59 58 58 58 58 59 59 59 59 59 59 59 59 59 60 61 61 60 58 57 58 59 61 62 63 65 66 67 68 67 65 65 66 68 69 69 69 71 72 73 74 75 75 76
45 43 42 45 47 47 47 47 45 43 44 46 48 49 48 46 45 45 46 48 49 51 52 52 51 52 52 51 50 51 52 54 55 55 58 61 62 61 61 60 60 61 60 59 59 60 60 60 59 58 58 58 58 58 59 59 59 59 59 57 55 55 59 60 60 62 64 65 67 68 68 67 65 64 64 66 68 69 70 71 73 75 76 78 79 79
46 44 43 44 46 47 49 51 51 48 48 49 49 50 50 47 43 39 39 42 46 50 53 53 53 53 52 52 52 52 53 55 56 58 59 60 62 62 61 61 61 61 61 61 61 61 60 59 58 58 59 59 59 60 60 59 59 60 60 58 55 55 57 58 57 58 59 60 62 64 66 67 66 65 65 66 67 69 71 72 74 76 76 77 78 78
48 47 46 45 45 47 49 52 54 54 53 52 51 50 51 50 45 38 32 31 36 46 52 54 54 54 54 53 53 53 54 54 55 57 57 57 58 59 60 60 60 61 61 62 62 61 60 60 59 59 59 59 60 60 61 61 62 63 63 63 61 59 60 61 60 60 61 61 62 62 64 66 68 68 69 70 71 72 72 73 74 75 76 77 77 78
48 48 48 47 46 47 49 52 54 56 56 55 54 53 52 52 50 46 42 37 36 39 46 51 54 54 53 53 54 54 54 54 55 56 57 57 57 57 57 57 59 59 60 60 61 60 60 60 60 59 59 60 60 61 61 62 62 63 63 63 63 63 63 64 64 65 66 67 67 67 67 68 69 70 70 71 72 73 74 74 74 74 74 75 75 76
51 51 50 50 49 48 49 51 54 55 56 55 55 56 56 56 55 54 52 50 47 46 47 49 52 53 52 54 55 55 55 56 58 59 59 61 61 59 57 57 57 58 58 58 57 58 58 57 57 57 58 58 59 60 61 61 61 61 62 62 62 63 63 64 65 66 67 68 68 69 69 70 70 70 70 70 71 72 72 72 72 72 72 72 72 73
55 56 55 54 53 53 52 52 53 54 54 54 56 58 58 59 60 59 58 57 57 56 55 53 52 53 55 56 56 56 55 56 59 62 63 63 63 62 60 58 57 58 57 56 55 55 56 56 57 58 58 59 60 60 61 61 61 61 62 62 62 63 63 64 64 65 66 67 68 69 70 70 70 71 71 70 70 70 70 70 70 71 71 70 70 72
59 59 57 56 55 55 54 54 53 52 52 54 58 60 60 59 60 61 61 62 61 61 62 60 57 56 57 58 57 57 56 56 58 60 62 63 63 62 61 60 58 57 57 56 55 55 56 59 61 61 61 61 61 61 62 62 63 63 63 64 64 64 64 64 64 65 66 67 68 69 70 71 72 72 72 72 72 71 71 71 71 72 71 70 70 71
60 60 58 57 56 56 57 57 55 54 54 55 57 59 59 59 60 62 63 64 64 64 65 65 63 61 61 60 60 60 60 59 59 60 62 63 62 61 61 61 60 59 58 57 56 55 56 60 63 63 62 62 62 63 64 64 64 64 64 65 65 66 66 65 65 66 68 68 69 70 71 71 73 73 73 73 73 73 72 72 73 72 72 71 71 71
60 60 59 59 60 61 61 59 58 57 57 58 58 60 60 59 61 63 64 63 64 64 65 65 62 62 62 62 63 64 65 63 62 63 63 63 63 63 62 62 62 61 60 59 59 58 58 60 63 63 63 64 65 66 67 67 67 67 66 66 67 67 68 67 68 69 69 69 70 71 71 72 73 74 73 73 73 73 73 73 73 73 73 72 72 73
62 62 62 62 63 64 63 61 60 60 61 61 61 61 61 61 62 64 64 63 64 64 64 62 61 60 60 61 62 64 64 64 63 63 64 65 65 65 65 65 64 64 64 63 62 62 62 62 63 64 65 65 66 67 68 69 70 70 69 69 69 70 70 71 71 71 71 71 72 73 73 74 75 74 74 74 74 74 73 73 74 74 74 74 74 74
65 65 64 63 64 64 63 63 63 63 64 65 64 64 65 66 66 66 65 64 65 65 63 60 61 61 60 59 60 60 60 60 60 61 63 65 67 67 67 67 66 66 67 66 66 66 66 65 65 66 67 67 67 68 69 70 71 72 73 72 72 73 73 73 73 73 73 73 73 73 74 74 74 73 72 72 72 72 72 72 72 73 73 73 73 74
69 69 67 65 65 65 65 66 66 67 68 68 66 67 70 71 69 68 66 66 66 65 62 60 61 62 61 60 60 59 57 57 57 59 62 64 65 66 66 66 66 66 66 66 66 67 66 66 67 67 68 69 69 70 71 72 73 74 74 74 74 74 74 75 74 73 74 74 73 73 72 72 72 71 69 69 68 67 67 67 67 68 68 68 68 69
72 72 70 69 68 69 70 69 69 70 71 70 69 70 71 73 72 69 67 66 65 63 61 61 62 62 62 61 61 60 58 58 59 61 63 63 64 64 65 65 65 65 65 65 65 66 66 66 67 68 68 69 70 71 73 74 75 75 76 76 75 75 75 75 75 74 74 74 73 73 73 73 73 72 71 69 67 66 65 65 64 65 65 65 65 65
74 72 72 72 71 72 73 72 72 72 73 72 72 72 73 74 74 72 69 68 66 64 63 64 63 63 64 64 64 63 62 62 62 64 64 64 64 64 65 65 65 65 65 64 65 65 65 66 66 67 69 70 71 72 74 75 76 77 77 77 77 77 76 76 75 75 75 75 75 75 75 76 76 76 75 74 72 70 68 67 67 67 67 67 67 67
74 73 73 73 73 74 75 75 75 75 75 74 74 74 74 75 75 75 74 71 69 67 67 68 67 67 67 67 67 67 67 67 67 67 67 67 66 66 66 66 65 65 66 66 66 67 67 67 67 68 69 70 71 72 73 75 76 77 77 78 77 77 77 76 76 76 77 77 77 78 78 79 79 79 80 79 78 77 75 74 74 73 72 72 72 71
76 75 76 75 75 76 77 78 78 77 77 77 78 78 78 77 78 78 77 75 73 72 71 72 72 71 71 71 71 72 71 71 71 70 70 70 69 69 69 68 68 68 68 68 68 69 69 70 70 70 71 72 73 73 74 75 76 77 77 78 78 78 77 77 77 77 78 79 79 80 80 81 81 82 82 83 83 82 81 80 80 79 78 77 76 75
78 78 78 77 77 78 78 79 80 80 79 80 81 81 81 81 80 80 80 80 78 77 75 75 76 76 77 77 77 76 76 76 75 74 73 73 73 72 72 72 72 72 72 72 72 72 73 73 73 73 74 74 75 76 76 77 77 78 79 79 80 80 79 79 79 79 79 80 80 81 82 83 84 84 85 86 86 86 85 85 84 84 83 83 82 81
78 80 80 80 80 81 81 81 82 82 82 82 83 83 83 83 82 83 83 83 82 80 79 79 79 80 80 80 80 79 79 79 78 77 76 76 75 75 75 75 76 76 76 76 76 76 76 76 76 76 76 77 78 78 78 79 79 80 81 81 81 82 81 81 81 81 81 82 83 84 85 85 86 87 87 88 88 88 88 88 87 87 87 86 86 85
74 77 78 80 81 83 83 84 85 85 84 84 84 84 85 85 84 85 85 85 84 83 82 82 82 82 82 82 82 82 82 82 81 80 80 79 78 78 78 78 79 79 79 79 79 79 79 79 79 79 80 81 81 81 82 83 83 84 84 84 84 83 83 83 83 83 83 84 85 86 87 88 88 89 89 90 90 89 89 89 89 88 88 88 88 87
69 71 72 75 78 80 82 83 85 86 86 85 85 86 86 87 87 87 87 87 86 85 85 85 85 84 84 85 85 85 85 85 84 83 83 82 82 81 81 82 83 83 82 82 82 83 83 83 83 83 84 85 85 85 86 87 87 88 88 87 88 88 87 87 87 87 88 88 89 89 90 91 92 92 92 93 92 92 91 91 91 91 90 90 90 89
64 66 68 71 73 74 76 78 80 82 84 85 86 87 88 89 89 89 89 89 88 88 87 87 87 87 87 87 87 88 88 88 88 87 86 85 84 84 84 85 86 86 86 86 86 86 87 87 87 88 89 89 89 90 90 91 91 91 91 90 90 91 91 91 92 92 92 92 93 93 93 94 94 95 94 94 94 94 93 93 93 93 92 91 90 89
58 61 64 67 68 69 70 71 74 76 78 80 82 84 86 88 89 89 89 90 90 90 90 90 90 90 90 90 90 90 90 90 91 91 90 88 87 86 86 87 88 89 89 89 89 90 90 91 91 92 93 93 93 93 93 93 93 93 93 93 93 93 93 93 93 94 94 94 95 95 95 95 95 95 94 94 93 93 92 91 91 91 91 91 90 88
53 56 59 61 62 63 64 66 67 69 71 73 76 78 81 82 84 86 87 88 89 90 90 90 90 90 90 91 91 91 91 92 92 92 92 91 89 88 88 89 89 90 90 91 91 92 92 93 93 94 94 94 94 94 94 93 93 93 93 93 93 93 92 92 93 93 94 94 94 94 94 94 94 94 93 93 92 92 91 90 89 89 90 90 89 87
Wind_Direction
249 248 247 245 243 242 242 241 241 240 241 242 243 243 243 243 244 244 245 248 243 241 247 246 246 250 249 249 251 250 250 250 251 252 254 255 256 256 256 256 257 258 259 260 262 264 266 266 269 272 275 275 274 275 277 280 281 282 282 280 279 277 275 276 276 274 272 269 266 261 257 253 251 252 248 244 247 253 261 267 272 278 283 289 293 296
248 247 245 243 242 241 241 240 240 241 241 241 241 241 241 241 241 242 243 246 243 239 244 246 245 249 248 248 250 249 249 252 252 251 254 256 256 255 255 255 258 258 260 262 263 265 265 267 271 274 273 274 276 279 283 285 285 286 287 283 279 278 277 277 276 274 272 267 263 259 256 251 247 247 248 250 254 259 268 276 281 285 291 296 298 298
246 244 243 242 241 240 240 240 240 240 239 239 239 239 239 239 240 241 241 244 244 239 242 245 243 247 247 246 249 250 249 252 254 252 253 256 255 254 254 255 257 256 258 262 264 266 269 272 272 271 274 279 283 285 288 291 291 292 292 289 286 284 281 278 275 273 270 266 262 260 256 252 247 246 250 254 258 264 273 279 284 288 293 296 296 296
244 243 242 241 241 240 239 240 239 238 237 236 237 237 238 238 239 240 240 243 244 239 241 243 242 244 248 248 250 251 249 250 254 254 253 255 256 254 254 254 254 254 254 257 262 267 272 274 272 273 281 285 287 292 297 297 300 301 295 291 289 286 282 278 275 272 267 265 263 259 255 252 249 248 250 254 259 266 273 278 283 287 291 292 293 294
243 242 241 241 240 239 237 237 237 236 236 236 237 237 238 238 239 240 241 242 243 240 241 245 244 245 249 250 250 251 249 249 252 254 253 255 257 256 255 253 254 254 253 258 267 273 272 272 274 280 286 290 296 310 313 288 290 293 286 286 286 283 279 276 274 269 264 261 254 249 253 253 252 251 251 253 258 264 271 277 282 285 288 290 292 292
243 241 241 240 239 237 235 236 236 235 235 235 236 236 237 237 238 240 242 242 243 241 242 245 245 245 248 249 249 251 250 250 252 253 254 256 258 257 255 255 255 255 255 260 269 271 269 273 279 285 293 305 322 338 263 250 260 262 268 276 276 274 275 273 270 265 259 255 243 238 248 252 252 252 252 253 258 266 274 280 284 286 288 289 289 289
242 240 240 239 237 235 235 235 235 235 235 235 235 236 237 238 238 240 243 243 243 241 242 245 245 245 248 249 250 251 251 251 253 255 255 256 257 256 255 256 256 255 252 252 253 255 263 273 282 286 291 300 294 213 219 229 240 245 249 260 264 265 270 272 272 266 258 253 241 235 243 248 248 251 253 255 264 274 281 284 285 286 287 285 284 284
241 238 237 236 235 235 234 234 235 235 234 234 235 236 237 238 239 241 243 244 244 243 243 245 246 245 247 249 251 252 252 252 254 256 256 256 257 255 253 253 251 248 246 244 241 244 254 265 266 245 249 258 243 223 221 222 230 238 239 245 252 256 261 269 273 269 262 257 244 234 240 246 248 252 257 263 272 279 282 283 283 284 283 282 281 281
241 237 235 235 235 234 234 234 234 234 234 234 234 236 237 238 239 241 242 242 243 245 245 246 247 247 247 250 252 253 253 253 254 256 257 257 257 256 253 250 247 243 241 239 235 238 246 245 225 211 225 249 246 234 232 235 238 240 241 244 248 252 258 265 266 264 262 256 241 232 237 244 249 255 262 268 275 280 281 281 282 282 282 280 279 278
240 236 235 235 234 233 232 232 233 233 234 234 234 236 237 237 238 240 241 242 242 244 245 246 248 248 248 250 252 254 255 255 254 255 257 258 258 258 254 249 245 240 241 243 241 241 240 222 207 202 204 227 242 241 240 245 250 251 251 251 251 252 258 261 257 256 256 247 234 229 238 248 254 259 263 269 274 277 278 279 280 281 279 277 276 276
239 235 234 233 232 232 231 231 231 232 232 232 233 234 235 235 236 238 240 241 242 242 244 245 247 249 250 250 250 252 254 255 256 257 258 258 257 257 254 248 244 239 239 242 241 236 225 209 202 201 201 211 232 241 241 245 253 256 256 256 255 254 255 255 252 251 252 245 233 228 238 251 259 263 266 271 272 272 274 277 281 281 276 273 275 275
238 234 232 231 231 231 230 230 230 230 231 231 231 233 234 234 234 236 238 241 242 242 243 244 246 247 249 250 250 251 254 257 258 257 256 257 257 255 252 247 239 233 232 229 226 230 223 211 205 204 204 207 220 234 240 245 251 254 255 254 253 253 253 251 250 251 253 250 240 233 237 247 256 264 270 272 271 270 272 277 284 284 277 275 276 277
238 234 233 233 233 232 231 230 231 231 231 232 232 233 235 235 234 235 237 239 241 242 242 243 244 245 247 250 250 251 253 255 257 257 257 257 257 254 252 247 232 226 225 219 220 230 225 212 206 208 209 210 214 222 232 242 250 253 253 251 250 251 251 249 248 250 251 250 245 240 241 244 252 262 268 269 271 273 274 278 285 286 282 281 281 280
240 237 235 235 234 233 232 231 231 232 232 232 233 233 235 236 235 236 238 239 240 240 241 242 243 244 246 248 250 250 250 249 251 255 255 253 250 249 247 242 235 232 230 223 222 228 224 214 208 211 216 215 217 223 230 241 250 255 256 253 250 250 249 249 249 249 250 249 246 245 246 248 255 263 266 266 269 274 276 277 280 281 283 285 286 285
240 238 235 234 233 232 232 232 231 231 232 233 234 234 236 237 237 236 238 239 239 240 242 244 244 244 246 248 250 250 250 249 248 247 248 247 247 249 246 233 228 236 235 225 222 224 224 219 213 216 223 223 224 232 239 244 250 256 258 257 254 251 249 250 251 251 252 251 249 249 250 253 256 259 263 266 269 270 272 275 275 277 282 286 287 287
240 237 235 233 232 232 233 232 232 232 232 233 233 233 235 237 238 238 239 240 241 242 244 245 245 245 247 248 249 249 249 250 248 245 244 242 240 243 244 230 222 231 234 223 219 221 223 223 218 220 229 229 228 234 242 250 255 258 259 259 259 256 251 250 251 250 250 248 248 250 253 256 256 256 260 265 268 268 268 271 274 277 281 282 282 284
240 238 236 234 232 232 233 232 231 231 231 233 234 233 234 236 238 238 239 241 241 242 244 244 244 245 246 247 248 249 248 246 246 244 239 234 232 233 236 235 230 233 234 224 220 222 224 224 224 228 233 231 231 237 243 251 261 265 264 262 263 261 255 252 250 248 247 246 248 250 253 256 256 256 258 260 264 266 267 271 275 277 279 278 278 281
240 238 237 236 234 233 233 231 231 232 232 232 234 234 233 235 236 237 240 241 242 243 244 245 245 246 247 246 245 245 244 244 243 240 233 228 229 230 234 240 241 239 236 229 224 223 224 227 233 240 242 235 231 236 241 245 255 266 269 267 266 263 258 254 251 249 248 248 250 252 254 255 256 256 257 257 259 262 266 271 274 274 274 274 276 278
239 237 235 235 235 236 235 232 231 233 233 232 234 235 234 236 237 239 240 241 242 244 245 244 243 243 246 246 243 241 242 242 241 238 234 233 236 239 240 242 243 240 235 230 226 223 224 227 232 239 244 239 231 231 238 241 247 259 265 266 264 261 258 256 255 253 252 253 254 255 255 256 256 257 256 256 257 258 262 267 269 269 270 270 270 274
237 236 235 233 234 236 236 233 232 233 234 232 233 235 235 237 239 240 240 241 242 244 245 245 243 242 244 245 244 244 242 240 241 243 242 241 243 243 238 236 237 237 233 229 226 224 223 224 225 231 238 238 233 231 233 233 234 245 255 260 260 259 259 260 259 258 257 257 257 257 258 258 258 257 256 256 256 256 257 259 262 264 266 267 266 269
236 236 235 231 232 235 235 235 234 233 234 233 232 233 234 234 236 238 240 242 242 243 244 246 246 244 244 243 242 243 243 243 245 247 244 241 239 235 233 236 240 240 237 233 229 226 222 222 225 231 237 237 232 230 228 223 228 240 248 254 257 258 261 263 262 261 259 259 259 258 259 259 259 258 256 254 253 253 253 254 257 258 260 263 265 267
234 236 236 231 232 235 233 234 235 233 234 234 231 232 233 232 233 235 237 239 240 241 242 244 246 244 243 243 240 239 243 246 245 240 233 230 230 229 232 238 243 246 245 240 234 228 223 223 228 234 237 235 229 228 228 225 229 238 246 252 256 259 262 263 262 261 260 260 260 259 259 260 259 258 256 254 251 251 250 251 254 256 257 260 263 266
232 234 237 236 237 237 235 235 236 235 235 236 234 234 234 233 234 234 236 238 240 241 242 243 245 244 244 244 240 236 234 231 232 233 228 223 223 224 224 225 229 234 238 238 236 233 228 226 230 233 234 231 228 229 233 233 235 241 248 252 256 260 262 262 261 262 261 260 260 260 260 260 259 258 257 255 252 251 251 251 253 255 257 259 262 265
230 231 234 236 238 238 238 238 238 237 237 237 236 235 236 236 237 236 236 238 239 241 243 244 245 245 245 244 241 236 230 224 225 231 232 229 230 232 230 228 228 229 233 239 241 240 236 232 232 235 235 235 234 236 239 241 242 245 249 252 255 257 259 260 261 260 260 260 260 260 260 260 260 259 257 256 253 252 252 252 254 255 258 260 261 263
229 227 227 229 230 232 234 237 239 238 239 238 236 236 236 237 238 238 237 238 240 241 243 244 245 246 246 246 244 241 236 232 231 234 238 238 238 239 238 237 236 235 236 239 240 241 242 241 239 237 235 236 238 242 246 248 249 249 249 250 252 254 256 258 259 259 258 259 259 258 258 259 260 260 259 257 255 253 253 254 255 256 258 260 261 262
229 224 223 224 225 227 230 235 238 238 239 241 241 240 238 237 238 239 239 239 240 242 244 245 246 247 246 246 246 244 240 240 240 240 241 242 240 239 239 239 240 241 240 240 240 241 244 245 244 241 238 237 240 244 248 251 252 253 252 251 252 253 254 255 256 257 257 257 257 256 256 256 258 259 259 259 257 255 254 254 255 257 258 259 260 261
233 229 225 225 225 227 229 234 239 238 237 239 240 240 239 238 238 239 240 242 242 242 243 245 246 247 245 243 243 243 240 239 241 241 241 243 242 240 240 242 243 244 244 245 245 245 245 245 245 245 244 243 244 246 246 248 250 252 253 253 252 252 252 252 252 252 252 254 255 256 256 255 256 257 259 260 259 258 256 255 256 257 258 259 259 260
236 234 231 228 227 227 226 230 237 239 236 235 237 239 239 239 239 240 241 242 242 242 243 243 245 246 247 245 244 244 240 235 235 235 236 240 242 242 242 243 244 245 246 248 249 249 249 249 249 249 249 249 248 248 247 247 248 250 251 252 252 252 252 250 249 248 248 249 251 254 256 257 257 257 258 259 259 258 257 257 257 257 258 259 260 262
235 236 234 233 231 228 226 227 231 236 235 233 234 238 240 239 239 241 242 241 242 244 245 245 245 246 248 248 246 245 243 240 237 237 238 241 244 245 245 246 247 249 251 252 253 253 253 253 252 252 252 252 251 251 251 251 251 250 250 251 252 253 253 251 249 249 249 248 248 250 253 256 257 258 258 258 257 257 257 258 258 259 260 261 262 264
234 236 236 236 236 233 230 229 229 232 234 235 235 237 240 239 236 238 243 246 246 246 245 244 244 246 247 248 247 246 246 246 245 243 242 243 245 246 247 248 249 251 252 253 254 255 255 254 254 255 255 255 255 255 255 255 254 253 253 253 252 252 254 254 252 250 249 249 249 249 250 252 253 255 256 256 257 257 259 260 260 261 261 263 264 265
233 234 236 238 239 238 235 234 233 232 235 237 237 238 241 240 235 228 229 236 244 247 247 246 245 246 246 247 247 248 249 250 251 250 247 245 245 246 248 249 249 250 252 253 254 255 255 255 256 257 257 257 257 258 258 258 257 257 257 257 256 254 253 253 253 251 250 250 251 251 251 251 251 252 253 255 256 257 259 260 260 261 261 263 264 265
235 234 234 236 237 238 237 236 236 236 236 237 238 239 242 243 240 231 224 222 229 240 244 244 243 244 245 246 245 246 247 248 250 252 251 250 249 248 249 250 251 252 252 253 254 255 256 257 258 258 258 259 259 259 259 258 258 258 259 259 259 257 255 254 253 253 253 253 253 253 253 253 253 253 253 254 255 257 258 260 261 261 261 262 263 264
235 235 233 233 234 235 236 237 238 238 238 238 238 239 240 242 243 240 235 230 229 233 239 239 239 240 242 242 242 242 244 246 248 250 251 252 253 252 252 253 253 254 254 254 256 257 258 260 261 261 261 260 260 259 259 258 258 258 258 258 258 258 257 256 255 255 255 255 255 255 255 255 255 255 255 255 256 257 258 260 261 262 263 263 263 264
233 234 234 234 233 234 235 236 237 239 240 241 241 240 239 240 242 242 242 239 236 236 239 240 239 239 240 241 242 242 242 244 246 248 249 251 252 254 255 255 254 254 255 256 257 258 259 262 262 262 261 261 260 260 259 259 259 259 258 258 258 258 257 257 257 256 256 256 256 256 256 256 257 257 257 258 259 259 259 261 262 263 264 265 265 266
233 235 234 235 236 235 236 236 236 237 239 240 241 242 241 240 241 242 243 243 242 241 242 243 242 242 243 245 246 245 244 244 245 247 249 251 252 254 255 257 257 257 257 258 258 258 260 262 262 261 261 261 261 261 260 260 260 260 260 260 259 259 258 258 258 258 257 257 257 257 257 257 257 258 258 259 260 261 262 262 263 264 265 265 266 267
235 237 236 237 237 237 238 238 237 236 237 239 240 243 243 243 243 243 243 243 244 244 244 244 243 243 244 245 247 247 248 247 247 248 250 252 254 255 256 257 259 259 259 259 259 260 261 262 263 264 264 264 264 264 263 262 262 262 262 262 262 262 261 260 260 259 259 258 258 258 258 258 258 259 259 259 260 261 262 263 263 264 264 265 265 265
234 236 237 237 238 238 239 239 239 238 238 239 239 241 242 243 244 245 245 245 245 245 246 246 246 245 245 246 247 248 249 249 250 251 252 254 255 256 257 258 259 260 260 260 260 260 260 261 264 266 266 267 267 267 266 265 264 263 262 263 263 264 264 263 262 261 261 261 260 260 260 260 259 260 260 261 261 261 262 262 263 263 264 264 264 264
232 235 236 236 238 239 240 240 240 240 240 240 240 240 241 242 243 245 246 246 247 247 248 249 249 248 247 246 247 248 250 251 252 253 254 255 256 256 257 257 258 259 259 259 259 259 258 258 259 261 262 264 266 267 267 268 268 267 267 266 266 266 266 266 265 265 265 264 263 263 262 261 261 261 262 262 262 263 263 263 263 263 263 263 263 263
230 232 234 235 238 240 241 241 241 242 242 242 242 242 242 241 242 244 245 247 248 249 249 250 251 252 251 249 248 248 249 251 253 254 255 255 255 256 256 256 256 257 257 258 258 258 258 258 258 259 260 262 263 264 265 266 268 269 270 271 271 270 270 271 271 270 270 269 268 267 266 266 265 264 263 263 263 263 263 263 263 263 263 263 263 264
230 230 231 233 235 238 239 240 241 242 243 243 243 244 245 245 244 245 246 248 250 252 253 253 253 254 254 253 253 252 251 251 252 252 253 253 254 255 255 256 256 256 256 257 257 258 258 259 259 259 260 261 262 263 264 265 266 267 269 270 270 271 272 273 273 274 273 273 273 272 272 271 269 268 265 264 263 263 263 263 264 264 264 264 264 265
231 231 231 232 233 235 237 238 240 242 243 244 245 245 248 250 250 249 249 250 252 254 255 256 256 257 258 257 257 256 254 253 253 253 253 253 254 255 255 256 257 257 257 257 257 257 258 258 258 259 259 260 261 261 262 263 264 265 266 268 269 270 271 272 273 274 275 275 275 274 275 274 274 272 271 269 268 267 267 267 267 268 268 267 267 267
234 234 234 234 234 235 237 238 239 241 243 244 246 247 248 250 252 252 251 251 252 253 254 255 256 257 258 259 259 259 258 256 256 256 256 255 256 256 257 258 259 260 260 259 259 258 258 258 257 257 258 259 259 260 261 262 263 264 265 266 267 268 269 270 271 271 272 272 272 273 274 274 275 276 276 276 276 275 275 274 273 273 273 272 272 271
237 236 236 236 236 237 238 239 240 241 242 244 245 247 248 249 251 253 253 252 251 252 252 253 254 254 255 256 257 258 258 258 258 258 258 258 258 258 258 258 259 259 260 261 261 261 261 260 260 259 259 259 259 259 260 261 262 263 264 265 266 267 267 268 268 269 269 270 270 271 272 274 275 276 277 278 279 279 278 278 276 275 274 274 273 272
238 238 238 238 238 238 239 240 241 242 243 244 245 246 247 248 249 251 252 252 252 251 251 252 252 253 253 253 254 254 255 256 257 258 259 260 261 261 261 261 261 260 260 260 261 261 261 261 261 261 261 261 261 261 261 262 262 263 264 265 265 266 267 267 268 269 269 270 271 271 272 273 274 275 276 277 277 278 278 278 277 277 276 275 274 273
238 239 239 239 240 240 241 241 243 243 243 244 246 247 248 248 249 250 252 252 252 252 252 252 252 253 253 253 253 254 255 255 256 257 258 259 260 261 262 263 263 264 264 263 263 263 263 263 262 262 262 262 262 262 262 262 262 263 263 264 265 265 266 266 266 266 266 267 267 268 269 270 270 271 272 272 273 273 274 274 274 275 275 274 274 273
241 241 241 240 240 241 241 242 243 244 244 245 246 248 249 250 251 252 252 253 254 254 254 254 254 255 255 256 256 257 257 258 258 259 259 259 259 260 261 262 262 263 264 265 266 266 266 267 267 267 267 266 266 265 265 265 264 264 264 264 264 265 266 266 266 266 265 265 265 265 265 266 267 267 268 269 269 270 270 271 271 271 271 271 271 271
245 244 244 244 243 242 242 243 243 244 245 246 247 248 250 251 252 252 253 254 255 255 255 255 256 256 257 257 258 258 258 259 259 259 259 260 260 260 261 261 262 262 263 264 265 265 266 267 267 268 268 268 268 269 269 269 269 269 269 269 269 270 270 271 271 271 270 270 270 270 270 270 270 271 271 271 272 272 272 272 272 272 272 272 272 271
244 245 245 246 246 245 245 246 246 247 247 248 248 249 250 251 252 253 254 254 255 256 256 257 257 257 257 258 258 259 259 259 259 259 259 259 260 260 261 261 262 262 263 263 264 264 265 265 266 266 266 266 267 267 267 268 268 269 270 270 271 272 273 273 273 273 273 273 272 272 273 273 273 273 273 274 274 274 275 275 275 274 273 273 272 271
245 246 246 246 246 246 246 247 248 249 249 250 251 251 252 253 253 254 255 256 257 257 258 258 258 259 259 259 260 260 261 261 262 262 261 261 261 261 261 262 263 263 263 264 264 264 265 265 265 265 265 266 266 266 267 267 267 268 269 269 270 270 271 271 272 272 272 273 273 273 273 273 273 273 273 274 274 275 275 275 275 275 274 274 273 272
247 247 247 248 248 247 247 247 247 248 248 249 250 251 252 253 254 255 256 257 258 259 259 259 260 260 260 261 261 262 263 263 264 264 264 263 263 263 263 263 263 263 264 264 265 265 265 265 265 266 266 266 267 267 267 268 268 269 269 270 270 270 270 270 271 271 272 272 272 272 273 273 273 274 274 274 274 274 274 274 274 275 275 274 273 273
249 248 249 249 250 250 250 249 249 249 248 248 249 249 250 251 252 254 255 256 256 257 258 259 259 260 260 261 261 262 263 263 264 264 264 264 264 263 263 263 263 263 264 264 264 265 265 265 265 266 266 267 267 267 268 269 269 269 270 270 270 270 271 271 271 271 272 272 272 272 273 273 274 274 274 275 275 275 275 275 274 274 274 274 273 272